Torna al catalogo

RASAT

AttivoScienzaSSO
NORAD 37791·PAYLOAD·🇹🇷 Turkey

Lanciato Aug 17, 2011 da Dombarovsky

Loading…

Prossimi Passaggi (prossime 24 ore)

TLE

AggiornatoSource: Space-Track

Epoca: Sep 14, 2026, 14:25 UTC

1 37791U 11044D   26257.60138615  .00000480  00000-0  91599-4 0  9998
2 37791  98.0567 347.6287 0019151 269.3361 201.9511 14.68236881806301

Traccia RASAT in tempo reale con AllMySat

Download on the App Store